User: anonymous
Location: Dayton
(39.7590°N, 84.1920°W)
Time: 13:52:56
(UTC-04:00)
Language:

Cosmos 1939 Rocket - Orbit

View from above orbital plane
View from above orbital plane
View from above satellite
View from above satellite

Ground track
Ground track

The orbit data is extracted from the following two-line orbital elements,

1 19046U 88032B   14272.69751681  .00003572  00000-0  28904-3 0    51
2 19046 097.6379 325.3645 0039573 107.0216 253.5349 14.99773264423861
Epoch (UTC): 29 September 2014 16:44:25
Eccentricity: 0.0039573
inclination: 97.6379°
perigee height: 540 km
apogee height: 595 km
right ascension of ascending node: 325.3645°
argument of perigee: 107.0216°
revolutions per day: 14.99773264
mean anomaly at epoch: 253.5349°
orbit number at epoch: 42386

The dashed part of the orbit path shows where the satellite is in the earth's shadow,  

DLR